Flag for Germany Weather past 2 weeks in Stuhr, Lower Saxony, Germany

Now
86 °F

Passing clouds.


Feels Like: 88 °F
Forecast: 67 / 85 °F
Wind: 6 mph from Southeast

Location: Bremen Airport

Current Time: Jul 4, 2015 at 11:37:09 AM

Latest Report: Jul 4, 2015 at 11:20 AM


Visibility: N/A

Pressure: 30.07 "Hg

Humidity: 52%

Dew point: 66 °F

Location of StuhrLocation

Historic Weather in Stuhr — Graph

°F

Stuhr temperature yesterday

Maximum temperature yesterday: 86 °F (at 3:20 PM)
Minimum temperature yesterday: 68 °F (at 6:50 AM)
Average temperature yesterday: 77 °F

Past Weeks' High & Low Weather Summary

 TemperatureHumidityPressure
High91 °F (Jul 2, 2:50 PM)100% (Jun 21, 3:20 AM)30.27 "Hg (Jun 21, 3:20 AM)
Low46 °F (Jun 20, 11:20 PM)30% (Jul 2, 3:20 PM)29.65 "Hg (Jun 22, 7:50 PM)
Average64 °F72%30.05 "Hg
* Reported Jun 19 10:20 AM — Jul 4 10:20 AM, Stuhr, Weather by CustomWeather, © 2015

Note: Actual official high and low records may vary slightly from our data, if they occured in-between our weather recording intervals... More about our weather records

Advertising

Stuhr weather history for previous 24 hours

 ConditionsComfort  
Time TempWeatherWind HumidityBarometerVisibility
10:20 AM
Sat, Jul 4
82 °FPassing clouds.6 mph55%30.09 "HgN/A
9:50 AM81 °FPassing clouds.6 mph58%30.09 "HgN/A
9:20 AM79 °FPassing clouds.6 mph58%30.09 "HgN/A
8:50 AM77 °FPassing clouds.5 mph61%30.09 "HgN/A
8:20 AM75 °FPassing clouds.6 mph69%30.09 "HgN/A
7:50 AM73 °FSunny.6 mph74%30.09 "Hg10 mi
7:20 AM72 °FSunny.6 mph78%30.09 "Hg10 mi
6:50 AM70 °FSunny.8 mph83%30.09 "Hg10 mi
6:20 AM70 °FSunny.6 mph83%30.12 "Hg10 mi
5:50 AM68 °FClear.6 mph88%30.12 "Hg6 mi
5:20 AM68 °FClear.5 mph88%30.12 "Hg6 mi
4:50 AM68 °FClear.5 mph88%30.12 "Hg10 mi
4:20 AM70 °FClear.5 mph83%30.15 "Hg10 mi
3:50 AM70 °FClear.6 mph88%30.15 "Hg10 mi
3:20 AM72 °FClear.5 mph83%30.15 "Hg10 mi
2:50 AM70 °FClear.5 mph88%30.15 "Hg10 mi
2:20 AM72 °FClear.6 mph83%30.18 "Hg10 mi
1:50 AM72 °FClear.6 mph83%30.18 "Hg10 mi
1:20 AM72 °FClear.6 mph88%30.18 "Hg10 mi
12:50 AM73 °FPassing clouds.5 mph83%30.21 "HgN/A
12:20 AM73 °FClear.7 mph83%30.21 "Hg10 mi
11:50 PM
Fri, Jul 3
73 °FClear.7 mph83%30.21 "Hg10 mi
11:20 PM75 °FClear.8 mph78%30.21 "Hg10 mi
10:50 PM77 °FSunny.7 mph69%30.21 "Hg10 mi
10:20 PM77 °FSunny.7 mph65%30.21 "Hg10 mi
9:50 PM77 °FSunny.7 mph65%30.21 "Hg10 mi
9:20 PM79 °FPassing clouds.7 mph61%30.21 "HgN/A
8:50 PM79 °FPassing clouds.8 mph61%30.21 "HgN/A
8:20 PM81 °FPassing clouds.10 mph62%30.21 "HgN/A
7:50 PM81 °FPassing clouds.10 mph62%30.21 "HgN/A
7:20 PM82 °FSunny.10 mph58%30.21 "Hg10 mi
6:50 PM82 °FPassing clouds.9 mph58%30.21 "HgN/A
6:20 PM82 °FPassing clouds.10 mph58%30.21 "HgN/A
5:50 PM82 °FPassing clouds.12 mph58%30.24 "HgN/A
5:20 PM82 °FPassing clouds.8 mph58%30.24 "HgN/A
4:50 PM84 °FPassing clouds.8 mph55%30.24 "HgN/A
4:20 PM86 °FPassing clouds.8 mph46%30.24 "HgN/A
3:50 PM86 °FPartly sunny.7 mph46%30.24 "HgN/A
3:20 PM86 °FPartly sunny.9 mph49%30.24 "HgN/A
2:50 PM84 °FPartly sunny.7 mph48%30.24 "HgN/A
2:20 PM84 °FPartly sunny.8 mph51%30.24 "HgN/A
1:50 PM84 °FPassing clouds.9 mph51%30.24 "HgN/A
1:20 PM84 °FPassing clouds.8 mph51%30.24 "HgN/A
12:50 PM81 °FPassing clouds.7 mph62%30.24 "HgN/A
12:20 PM79 °FPassing clouds.8 mph70%30.24 "HgN/A
11:50 AM77 °FPassing clouds.7 mph65%30.27 "HgN/A
11:20 AM75 °FPassing clouds.7 mph74%30.27 "HgN/A
Weather by CustomWeather, © 2015

See weather overviewHow to use our weather pages